TimeEDT,TemperatureF,Dew PointF,Humidity,Sea Level PressureIn,VisibilityMPH,Wind Direction,Wind SpeedMPH,Gust SpeedMPH,PrecipitationIn,Events,Conditions,WindDirDegrees,DateUTC
12:15 AM,62.6,62.6,100,30.00,10.0,Calm,Calm,-,N/A,,Clear,0,2013-08-03 04:15:00
12:35 AM,62.6,62.6,100,29.99,10.0,Calm,Calm,-,N/A,,Clear,0,2013-08-03 04:35:00
12:55 AM,62.6,62.6,100,29.99,10.0,ESE,3.5,-,N/A,,Clear,110,2013-08-03 04:55:00
1:15 AM,62.6,62.6,100,29.98,10.0,Calm,Calm,-,N/A,,Clear,0,2013-08-03 05:15:00
1:35 AM,62.6,62.6,100,29.98,10.0,SSE,3.5,-,N/A,,Clear,160,2013-08-03 05:35:00
1:55 AM,64.4,62.6,94,29.98,10.0,South,6.9,-,N/A,,Clear,190,2013-08-03 05:55:00
2:15 AM,64.4,62.6,94,29.97,10.0,South,5.8,-,N/A,,Clear,190,2013-08-03 06:15:00
2:35 AM,64.4,62.6,94,29.97,10.0,South,3.5,-,N/A,,Clear,170,2013-08-03 06:35:00
2:55 AM,62.6,62.6,100,29.97,10.0,Calm,Calm,-,N/A,,Clear,0,2013-08-03 06:55:00
3:15 AM,62.6,62.6,100,29.97,10.0,SSE,4.6,-,N/A,,Clear,160,2013-08-03 07:15:00
3:35 AM,64.4,62.6,94,29.97,10.0,SSE,5.8,-,N/A,,Clear,160,2013-08-03 07:35:00
3:55 AM,64.4,62.6,94,29.97,10.0,South,4.6,-,N/A,,Clear,170,2013-08-03 07:55:00
4:15 AM,64.4,62.6,94,29.97,10.0,South,4.6,-,N/A,,Clear,170,2013-08-03 08:15:00
4:35 AM,64.4,62.6,94,29.97,10.0,South,4.6,-,N/A,,Clear,190,2013-08-03 08:35:00
4:55 AM,66.2,62.6,88,29.97,10.0,SSW,6.9,-,N/A,,Clear,200,2013-08-03 08:55:00
5:15 AM,66.2,62.6,88,29.98,10.0,SSW,3.5,-,N/A,,Clear,210,2013-08-03 09:15:00
5:35 AM,66.2,62.6,88,29.98,10.0,WSW,3.5,-,N/A,,Scattered Clouds,250,2013-08-03 09:35:00
5:55 AM,68.0,62.6,83,29.97,10.0,Calm,Calm,-,N/A,Rain,Light Rain,0,2013-08-03 09:55:00
6:15 AM,66.2,62.6,88,29.97,10.0,Calm,Calm,-,N/A,,Light Drizzle,0,2013-08-03 10:15:00
6:35 AM,64.4,62.6,94,29.98,10.0,Calm,Calm,-,N/A,,Mostly Cloudy,0,2013-08-03 10:35:00
6:45 AM,66.2,62.6,88,29.98,10.0,SE,4.6,-,N/A,,Mostly Cloudy,140,2013-08-03 10:45:00
6:55 AM,66.2,64.4,94,29.98,10.0,SSE,3.5,-,N/A,,Mostly Cloudy,160,2013-08-03 10:55:00
7:45 AM,68.0,64.4,88,30.00,10.0,SSW,3.5,-,N/A,,Clear,210,2013-08-03 11:45:00
8:49 AM,68.0,66.2,94,30.00,10.0,SSW,4.6,-,N/A,,Overcast,210,2013-08-03 12:49:00
9:50 AM,69.8,66.2,88,30.01,10.0,SW,4.6,-,N/A,,Overcast,230,2013-08-03 13:50:00
10:55 AM,71.6,66.2,83,30.01,10.0,Calm,Calm,-,N/A,,Scattered Clouds,0,2013-08-03 14:55:00
11:50 AM,71.6,66.2,83,30.01,10.0,SSW,4.6,-,N/A,,Overcast,200,2013-08-03 15:50:00
12:50 PM,69.8,68.0,94,30.00,10.0,SSW,3.5,-,N/A,Rain,Light Rain,200,2013-08-03 16:50:00
1:50 PM,71.6,68.0,88,30.00,10.0,SW,8.1,-,N/A,,Overcast,230,2013-08-03 17:50:00
2:50 PM,71.6,68.0,88,29.99,10.0,SSW,4.6,-,N/A,Rain,Light Rain,200,2013-08-03 18:50:00
3:20 PM,69.8,68.0,94,29.99,5.0,WSW,4.6,-,N/A,Rain,Rain,250,2013-08-03 19:20:00
3:50 PM,69.8,68.0,94,29.99,4.0,Calm,Calm,-,N/A,Rain,Rain,0,2013-08-03 19:50:00
4:50 PM,69.8,68.0,94,29.98,10.0,Calm,Calm,-,N/A,,Overcast,0,2013-08-03 20:50:00
5:50 PM,69.8,66.2,88,29.97,10.0,West,5.8,-,N/A,,Overcast,260,2013-08-03 21:50:00
6:50 PM,69.8,69.8,100,29.96,10.0,WSW,10.4,-,N/A,,Mostly Cloudy,240,2013-08-03 22:50:00
7:50 PM,69.8,68.0,94,29.96,10.0,SSW,6.9,-,N/A,,Overcast,210,2013-08-03 23:50:00
8:55 PM,68.0,64.4,88,29.97,10.0,SSW,8.1,-,N/A,,Scattered Clouds,200,2013-08-04 00:55:00
9:15 PM,68.0,64.4,88,29.97,10.0,WSW,10.4,-,N/A,,Scattered Clouds,240,2013-08-04 01:15:00
9:35 PM,66.2,64.4,94,29.98,10.0,Calm,Calm,-,N/A,,Mostly Cloudy,0,2013-08-04 01:35:00
9:55 PM,64.4,64.4,100,29.98,10.0,Calm,Calm,-,N/A,,Scattered Clouds,0,2013-08-04 01:55:00
10:15 PM,64.4,64.4,100,29.98,7.0,South,4.6,-,N/A,,Clear,180,2013-08-04 02:15:00
10:35 PM,64.4,64.4,100,29.97,7.0,South,6.9,-,N/A,,Clear,190,2013-08-04 02:35:00
10:55 PM,64.4,64.4,100,29.98,7.0,SSW,5.8,-,N/A,,Clear,210,2013-08-04 02:55:00
11:15 PM,64.4,64.4,100,29.98,7.0,SW,5.8,-,N/A,,Mostly Cloudy,220,2013-08-04 03:15:00
11:35 PM,64.4,64.4,100,29.98,7.0,Calm,Calm,-,N/A,,Overcast,0,2013-08-04 03:35:00
11:55 PM,64.4,64.4,100,29.98,5.0,South,3.5,-,N/A,,Scattered Clouds,170,2013-08-04 03:55:00